Simultaneous Nadir Overpasses (SNOs) Predictions

Prediction of SNOs between METOP-B and NOAA-19 Satellite Orbit:

Table of predicted SNOs for the next 14.0 days since TLE Epoch: 2/17/2024
Index Date (METOP-B) Time (METOP-B) Lat,Lon (METOP-B) SZA (METOP-B ) Date (NOAA-19) Time (NOAA-19) Lat,Lon (NOAA-19) SZA (NOAA-19 ) Distance(km) Time Diff (sec)
1 02/22/2024 20:41:07 -79.91, 69.26 89.61 02/22/2024 20:40:00 -79.92, 69.35 89.61 2.12 67
2 02/22/2024 21:31:45 79.97,-122.78 90.47 02/22/2024 21:30:58 79.98,-122.68 90.47 2.20 47
3 02/22/2024 22:22:26 -79.99, 44.70 89.52 02/22/2024 22:21:56 -79.98, 44.58 89.55 2.56 30
4 02/22/2024 23:13:05 80.02,-147.63 90.52 02/22/2024 23:12:55 80.02,-147.75 90.50 2.41 10
5 02/23/2024 00:03:45 -80.07, 20.15 89.43 02/23/2024 00:03:51 -80.06, 20.13 89.44 0.70 6
6 02/23/2024 00:54:25 80.07,-172.47 90.56 02/23/2024 00:54:51 80.07,-172.50 90.57 0.51 26
7 02/23/2024 01:45:05 -80.12, -4.69 89.39 02/23/2024 01:45:47 -80.12, -4.63 89.37 1.29 42



Historial Predications of SNOs between METOP-B and NOAA-19
